This demonstration page uses our WeatherBlox Daily Observations layout. Learn more.

Left ArrowRight Arrow

Hourly Observations for May 24, 2022

Temp ( °F °C ) Dew Point ( °F °C ) Humidity (%) Winds ( mph kmh ) Pressure ( in mb ) Visibility ( mi km ) Precip ( " mm )
12:52 am 00:52 Cloudy 58 14.4 36 2.2 44 44 VRB 3 6 30.14 1021 10 16 0.00 0.00
1:52 am 01:52 Cloudy 57 13.9 35 1.7 44 44 ESE 5 7 30.12 1020 10 16 0.00 0.00
2:52 am 02:52 Cloudy 57 13.9 35 1.7 44 44 E 10 17 30.10 1019 10 16 0.00 0.00
3:52 am 03:52 Cloudy 56 13.3 35 1.7 46 46 E 12 19 30.10 1019 10 16 0.00 0.00
4:52 am 04:52 Cloudy 56 13.3 35 1.7 46 46 E 9 15 30.10 1019 10 16 0.00 0.00
5:52 am 05:52 Cloudy 56 13.3 36 2.2 47 47 E 3 6 30.09 1019 10 16 0.00 0.00
6:52 am 06:52 Cloudy 56 13.3 37 2.8 49 49 Calm 30.10 1019 10 16 0.00 0.00
7:52 am 07:52 Cloudy 57 13.9 39 3.9 51 51 E 9 15 30.08 1019 10 16 0.00 0.00
8:52 am 08:52 Cloudy 59 15 41 5 51 51 E 9 15 30.08 1019 10 16 0.00 0.00
9:52 am 09:52 Cloudy 61 16.1 41 5 48 48 E 16 26 30.07 1018 10 16 0.00 0.00
10:52 am 10:52 Cloudy with Light Rain 61 16.1 44 6.7 54 54 ESE 13 20 30.07 1018 10 16 0.00 0.00
11:52 am 11:52 Cloudy with Light Rain 59 15 47 8.3 64 64 ESE 9 15 30.07 1018 10 16 0.00 0.00
12:52 pm 12:52 Cloudy with Light Rain 55 12.8 50 10 83 83 E 9 15 30.08 1019 6 10 0.03 0.76
1:52 pm 13:52 Cloudy with Light Rain 55 12.8 49 9.4 80 80 NE 8 13 30.04 1017 7 11 0.05 1.27
2:52 pm 14:52 Cloudy with Light Rain 54 12.2 49 9.4 83 83 E 15 24 30.02 1017 5 8 0.04 1.02
3:52 pm 15:52 Cloudy with Rain 53 11.7 48 8.9 83 83 NE 13 20 30.00 1016 4 6 0.07 1.78
4:09 pm 16:09 Cloudy with Light Rain 53 11.7 49 9.4 86 86 NE 12 19 29.99 1016 4 6 0.02 0.51
4:45 pm 16:45 Cloudy with Rain 53 11.7 49 9.4 86 86 NE 10 17 29.98 1015 4 6 0.08 2.03
4:52 pm 16:52 Cloudy with Light Rain 53 11.7 49 9.4 86 86 NNE 8 13 29.98 1015 4 6 0.08 2.03
5:52 pm 17:52 Cloudy with Light Rain 53 11.7 48 8.9 83 83 NE 13 20 29.98 1015 4 6 0.04 1.02
6:52 pm 18:52 Cloudy with Rain 52 11.1 49 9.4 89 89 NNE 10 17 29.97 1015 4 6 0.14 3.56
7:52 pm 19:52 Cloudy with Rain 51 10.6 48 8.9 89 89 NNE 16 26 29.95 1014 4 6 0.14 3.56
8:52 pm 20:52 Cloudy with Light Rain 51 10.6 48 8.9 89 89 NE 15 24 29.96 1015 7 11 0.08 2.03
9:22 pm 21:22 Cloudy with Rain 51 10.6 48 8.9 89 89 NNE 15 24 29.95 1014 5 8 0.05 1.27
9:37 pm 21:37 Cloudy with Light Rain 51 10.6 48 8.9 89 89 NNE 13 20 29.95 1014 8 13 0.07 1.78
9:52 pm 21:52 Cloudy with Light Rain 51 10.6 48 8.9 89 89 NNE 14 22 29.93 1014 7 11 0.07 1.78
10:52 pm 22:52 Cloudy with Light Rain 52 11.1 49 9.4 89 89 NNE 14 22 29.93 1014 7 11 0.01 0.25
11:23 pm 23:23 Cloudy 53 11.7 49 9.4 86 86 NE 10 17 29.92 1013 10 16 0.00 0.00
11:52 pm 23:52 Cloudy with Light Rain 53 11.7 49 9.4 86 86 ENE 14 22 29.90 1012 9 14 0.00 0.00

Powered by AerisWeather